Waarnemingen

Advertentie
Mijn weer
Gela, Italië (16453): temperatuur & dauwpunt: 12.02.2019 01:00:00 - 18.02.2019 01:00:00 (CET)Gela, Italië (16453): windsnelheid: 12.02.2019 01:00:00 - 18.02.2019 01:00:00 (CET)Gela, Italië (16453): windrichting: 12.02.2019 01:00:00 - 18.02.2019 01:00:00 (CET)Gela, Italië (16453): luchtdruk: 12.02.2019 01:00:00 - 18.02.2019 01:00:00 (CET)Gela, Italië (16453): zicht: 12.02.2019 01:00:00 - 18.02.2019 01:00:00 (CET)Gela, Italië (16453): Zonneschijnduur: 12.02.2019 01:00:00 - 18.02.2019 01:00:00 (CET)
Datum & Tijd tt [°C] td [°C] ff [km/u] ff [kn] dd ppp [hPa] vv [km] sd [min]
18.02.2019 01:00:00 - - - - - - - -
18.02.2019 00:00:00 - - - - - - - -
17.02.2019 23:00:00 - - - - - - - -
17.02.2019 22:00:00 - - - - - - - -
17.02.2019 21:00:00 - - - - - - - -
17.02.2019 20:00:00 - - - - - - - -
17.02.2019 19:00:00 12,4 4,4 9 5 NW 1028,1 25 0
17.02.2019 18:00:00 13,0 4,0 13 7 W - 10 -
17.02.2019 17:00:00 13,0 4,0 15 8 W - 10 -
17.02.2019 16:00:00 14,2 3,7 11 6 WZW 1027,7 25 60
17.02.2019 15:00:00 14,0 3,0 11 6 NNW - 10 -
17.02.2019 14:00:00 14,0 2,0 11 6 OZO - 10 -
17.02.2019 13:00:00 13,8 2,4 13 7 ZZW 1028,6 25 60
17.02.2019 12:00:00 14,0 4,0 8 4 ZW - 10 -
17.02.2019 11:00:00 14,0 4,0 4 2 WZW - 10 -
17.02.2019 10:00:00 12,2 4,4 2 1 NNO 1029,7 20 60
17.02.2019 09:00:00 10,0 4,0 5 3 NO - 10 -
17.02.2019 08:00:00 9,0 3,0 8 4 NNO - 10 -
17.02.2019 07:00:00 9,6 3,1 5 3 NNO 1028,8 15 0
17.02.2019 06:00:00 - - - - - - - -
17.02.2019 05:00:00 - - - - - - - -
17.02.2019 04:00:00 - - - - - - - -
17.02.2019 03:00:00 - - - - - - - -
17.02.2019 02:00:00 - - - - - - - -
17.02.2019 01:00:00 - - - - - - - -
17.02.2019 00:00:00 - - - - - - - -
16.02.2019 23:00:00 - - - - - - - -
16.02.2019 22:00:00 - - - - - - - -
16.02.2019 21:00:00 - - - - - - - -
16.02.2019 20:00:00 - - - - - - - -
16.02.2019 19:00:00 12,0 1,9 5 3 NO 1026,5 10 0
16.02.2019 18:00:00 13,0 1,0 5 3 NW - 10 -
16.02.2019 17:00:00 13,0 0,0 16 9 W - 10 -
16.02.2019 16:00:00 14,0 1,3 13 7 W 1026,6 20 30
16.02.2019 15:00:00 14,0 -1,0 5 3 NNW - 10 -
16.02.2019 14:00:00 14,0 0,0 13 7 NO - 10 -
16.02.2019 13:00:00 14,0 -0,4 13 7 NO 1027,2 20 60
16.02.2019 12:00:00 13,0 -1,0 13 7 NO - 10 -
16.02.2019 11:00:00 13,0 -1,0 18 10 NO - 10 -
16.02.2019 10:00:00 11,0 0,1 15 8 NO 1026,7 20 60
16.02.2019 09:00:00 12,0 5,0 8 4 NNO - 10 -
16.02.2019 08:00:00 9,0 2,0 8 4 O - 10 -
16.02.2019 07:00:00 8,4 2,4 8 4 NNO 1024,9 10 0
16.02.2019 06:00:00 - - - - - - - -
16.02.2019 05:00:00 - - - - - - - -
16.02.2019 04:00:00 - - - - - - - -
16.02.2019 03:00:00 - - - - - - - -
16.02.2019 02:00:00 - - - - - - - -
16.02.2019 01:00:00 - - - - - - - -
16.02.2019 00:00:00 - - - - - - - -
15.02.2019 23:00:00 - - - - - - - -
15.02.2019 22:00:00 - - - - - - - -
15.02.2019 21:00:00 - - - - - - - -
15.02.2019 20:00:00 - - - - - - - -
15.02.2019 19:00:00 13,2 7,4 11 6 NO 1020,2 20 0
15.02.2019 18:00:00 14,0 8,0 9 5 NO - 10 -
15.02.2019 17:00:00 14,0 8,0 8 4 Z - 10 -
15.02.2019 16:00:00 14,2 7,7 13 7 ZZW 1021,0 20 60
15.02.2019 15:00:00 14,0 7,0 15 8 ZW - 10 -
15.02.2019 14:00:00 14,0 6,0 11 6 OZO - 10 -
15.02.2019 13:00:00 14,0 5,6 11 6 ZW 1023,4 20 54
15.02.2019 12:00:00 14,0 6,0 15 8 ZZW - 10 -
15.02.2019 11:00:00 13,0 5,0 9 5 ZZW - 10 -
15.02.2019 10:00:00 13,2 4,4 5 3 Z 1025,3 22 60
15.02.2019 09:00:00 12,0 4,0 2 1 - - 10 -
15.02.2019 08:00:00 12,0 3,0 8 4 N - 10 -
15.02.2019 07:00:00 12,0 3,0 9 5 NNO 1025,4 20 -
15.02.2019 06:00:00 - - - - - - - -
15.02.2019 05:00:00 - - - - - - - -
15.02.2019 04:00:00 - - - - - - - -
15.02.2019 03:00:00 - - - - - - - -
15.02.2019 02:00:00 - - - - - - - -
15.02.2019 01:00:00 - - - - - - - -
15.02.2019 00:00:00 - - - - - - - -
14.02.2019 23:00:00 - - - - - - - -
14.02.2019 22:00:00 - - - - - - - -
14.02.2019 21:00:00 - - - - - - - -
14.02.2019 20:00:00 - - - - - - - -
14.02.2019 19:00:00 12,4 -1,2 8 4 NNW 1027,6 23 0
14.02.2019 18:00:00 14,0 0,0 5 3 NW - 10 -
14.02.2019 17:00:00 15,0 0,0 11 6 N - 10 -
14.02.2019 16:00:00 15,4 -0,4 11 6 NNW 1027,1 25 60
14.02.2019 15:00:00 16,0 -1,0 11 6 N - 10 -
14.02.2019 14:00:00 15,0 0,0 9 5 N - 10 -
14.02.2019 13:00:00 14,8 0,3 11 6 NNW 1028,3 25 60
14.02.2019 12:00:00 14,0 0,0 9 5 NW - 10 -
14.02.2019 11:00:00 12,0 1,0 11 6 W - 10 -
14.02.2019 10:00:00 11,4 1,9 5 3 W 1029,1 20 60
14.02.2019 09:00:00 9,0 2,0 4 2 W - 10 -
14.02.2019 08:00:00 9,0 1,0 4 2 NNW - 10 -
14.02.2019 07:00:00 8,6 1,5 8 4 ONO 1029,2 25 0
14.02.2019 06:00:00 - - - - - - - -
14.02.2019 05:00:00 - - - - - - - -
14.02.2019 04:00:00 - - - - - - - -
14.02.2019 03:00:00 - - - - - - - -
14.02.2019 02:00:00 - - - - - - - -
14.02.2019 01:00:00 - - - - - - - -
14.02.2019 00:00:00 - - - - - - - -
13.02.2019 23:00:00 - - - - - - - -
13.02.2019 22:00:00 - - - - - - - -
13.02.2019 21:00:00 - - - - - - - -
13.02.2019 20:00:00 - - - - - - - -
13.02.2019 19:00:00 11,0 -2,8 15 8 N 1025,7 15 0
13.02.2019 18:00:00 11,0 -3,0 16 9 NNO - 10 -
13.02.2019 17:00:00 12,0 -3,0 13 7 N - 10 -
13.02.2019 16:00:00 13,0 -2,1 18 10 N 1024,2 20 60
13.02.2019 15:00:00 13,0 -2,0 22 12 N - 10 -
13.02.2019 14:00:00 13,0 -2,0 31 17 N - 10 -
13.02.2019 13:00:00 13,0 -2,1 24 13 N 1025,4 25 60
13.02.2019 12:00:00 13,0 -3,0 21 11 N - 10 -
13.02.2019 11:00:00 13,0 -1,0 21 11 NNO - 10 -
13.02.2019 10:00:00 12,0 -1,5 11 6 N 1025,3 25 60
13.02.2019 09:00:00 11,0 -2,0 16 9 N - 10 -
13.02.2019 08:00:00 11,0 -1,0 15 8 N - 10 -
13.02.2019 07:00:00 9,8 -1,5 9 5 N 1024,2 18 0
13.02.2019 06:00:00 - - - - - - - -
13.02.2019 05:00:00 - - - - - - - -
13.02.2019 04:00:00 - - - - - - - -
13.02.2019 03:00:00 - - - - - - - -
13.02.2019 02:00:00 - - - - - - - -
13.02.2019 01:00:00 - - - - - - - -
13.02.2019 00:00:00 - - - - - - - -
12.02.2019 23:00:00 - - - - - - - -
12.02.2019 22:00:00 - - - - - - - -
12.02.2019 21:00:00 - - - - - - - -
12.02.2019 20:00:00 - - - - - - - -
12.02.2019 19:00:00 11,4 -0,4 11 6 NNW 1020,0 18 -
12.02.2019 18:00:00 12,0 -1,0 16 9 N - 10 -
12.02.2019 17:00:00 13,0 -1,0 16 9 NNO - 10 -
12.02.2019 16:00:00 13,8 1,1 21 11 N 1017,8 22 60
12.02.2019 15:00:00 13,0 0,0 16 9 N - 10 -
12.02.2019 14:00:00 14,0 1,0 22 12 N - 10 -
12.02.2019 13:00:00 14,0 2,3 16 9 NNO 1017,7 20 30
12.02.2019 12:00:00 13,0 3,0 15 8 NNO - 10 -
12.02.2019 11:00:00 11,0 5,0 5 3 W - 10 -
12.02.2019 10:00:00 11,0 5,1 11 6 NW 1017,3 20 6
12.02.2019 09:00:00 10,0 5,0 9 5 NNW - 10 -
12.02.2019 08:00:00 10,0 4,0 9 5 N - 10 -
12.02.2019 07:00:00 10,0 4,0 11 6 NNW 1016,3 20 -
12.02.2019 06:00:00 - - - - - - - -
12.02.2019 05:00:00 - - - - - - - -
12.02.2019 04:00:00 - - - - - - - -
12.02.2019 03:00:00 - - - - - - - -
12.02.2019 02:00:00 - - - - - - - -
12.02.2019 01:00:00 - - - - - - - -

tt = temperatuur
td = dauwpunt
ff = windsnelheid
dd = windrichting
ppp = luchtdruk
vv = zicht
sd = Zonneschijnduur

Weerstations in de omgeving